Location: Unspecified
(48.2082°N, 0.0000°E)
Time: 18:54:28
(UTC+00:00)

A-11 Canister half - Pass Details

Date: 28 June 2019
Orbit: 1514 x 1685 km, 47.2° (Epoch: 20 July)

Event Time Altitude Azimuth Distance (km) Brightness Sun altitude
Rises 11:13:45 0° 260° (W) 4,907 11.6 63.2°
Reaches altitude 10° 11:16:56 10° 260° (W) 3,904 11.2 63.4°
Maximum altitude 11:26:57 85° 175° (S) 1,627 10.9 64.0°
Drops below altitude 10° 11:36:36 10° 88° (E) 3,771 11.3 64.5°
Sets 11:39:37 0° 88° (E) 4,734 11.6 64.6°
